Weather History for Nogales, AZ

Change the Weather History Date:

Wednesday, March 6, 2013

  Actual Average (KTUS) Record (KTUS)
Temperature  
Mean Temperature 62 °F 58 °F  
Max Temperature 78 °F 72 °F 93 °F (1910)
Min Temperature 46 °F 45 °F 27 °F (1896)
Degree Days  
Heating Degree Days 3 7  
Month to date heating degree days 45  
Since 1 July heating degree days 1312  
Cooling Degree Days 0 0  
Month to date cooling degree days 0  
Year to date cooling degree days 4  
Growing Degree Days 12 (Base 50)    
Moisture  
Dew Point 22 °F    
Average Humidity 23    
Maximum Humidity 37    
Minimum Humidity 12    
Precipitation  
Precipitation 0.00 in 0.02 in 0.75 in (2000)
Month to date precipitation 0.15  
Year to date precipitation 1.95  
Snow  
Snow 0.00 in 0.00 in 0.00 in (2002)
Month to date snowfall 0.0  
Since 1 July snowfall 0.6  
Snow Depth -    
Sea Level Pressure  
Sea Level Pressure 29.92 in    
Wind  
Wind Speed 5 mph (SSW)    
Max Wind Speed 15 mph    
Max Gust Speed 24 mph    
Visibility 10 miles    
Events      
T = Trace of Precipitation, MM = Missing Value Source: NWS Daily Summary

Daily Weather History Graph

Daily Weather History Graph

Search for Another Location

Airport:

Trip Planner

Search our weather history database for the weather conditions in past years. The results will help you decide how hot, cold, wet, or windy it might be!

Date:

Astronomy

Mar. 06, 2013 Rise Set
Actual Time 6:44 AM MST 6:25 PM MST
Civil Twilight 6:19 AM MST 6:49 PM MST
Nautical Twilight 5:51 AM MST 7:17 PM MST
Astronomical Twilight 5:23 AM MST 7:46 PM MST
Moon 2:40 AM MST (3/6) 1:26 PM MST (3/6)
Length of Visible Light 12h 29m
Length of Day
11h 41m
Waning Crescent, 29% of the Moon is Illuminated
Mar 6
Waning Crescent
Mar 11
New
Mar 19
First Quarter
Mar 27
Full
Apr 2
Last Quarter

Hourly Weather History & Observations

Time (MST) Temp. Dew Point Humidity Pressure Visibility Wind Dir Wind Speed Gust Speed Precip Events Conditions
12:54 AM 54.0 °F 23.0 °F 30% 29.94 in 10.0 mi East 3.5 mph - N/A   Clear
1:54 AM 54.0 °F 18.0 °F 24% 29.92 in 10.0 mi Calm Calm - N/A   Clear
2:54 AM 51.1 °F 21.0 °F 31% 29.94 in 10.0 mi Calm Calm - N/A   Clear
3:54 AM 50.0 °F 18.0 °F 28% 29.94 in 10.0 mi East 4.6 mph - N/A   Clear
4:54 AM 55.9 °F - N/A% 29.93 in 10.0 mi Calm Calm - N/A   Clear
5:54 AM 48.9 °F 16.0 °F 27% 29.95 in 10.0 mi Variable 4.6 mph - N/A   Clear
6:54 AM 46.0 °F 17.1 °F 31% 29.98 in 10.0 mi Calm Calm - N/A   Clear
7:54 AM 53.1 °F 19.9 °F 27% 29.98 in 10.0 mi Calm Calm - N/A   Clear
8:54 AM 62.1 °F 17.1 °F 18% 29.97 in 10.0 mi Calm Calm - N/A   Clear
9:54 AM 68.0 °F 16.0 °F 14% 29.95 in 10.0 mi ESE 5.8 mph 16.1 mph N/A   Clear
10:54 AM 72.0 °F 24.1 °F 17% 29.95 in 10.0 mi SW 9.2 mph - N/A   Clear
11:54 AM 75.0 °F 25.0 °F 16% 29.92 in 10.0 mi SSW 10.4 mph - N/A   Clear
12:54 PM 77.0 °F 26.1 °F 15% 29.89 in 10.0 mi WSW 15.0 mph 24.2 mph N/A   Clear
1:54 PM 77.0 °F 24.1 °F 14% 29.86 in 10.0 mi WSW 13.8 mph 21.9 mph N/A   Clear
2:54 PM 78.8 °F 21.2 °F 12% 30.00 in 10.0 mi SW 12.7 mph 21.9 mph N/A   Clear
3:54 PM 77.0 °F 21.9 °F 13% 29.85 in 10.0 mi SW 12.7 mph 17.3 mph N/A   Clear
4:54 PM 75.0 °F 21.9 °F 14% 29.84 in 10.0 mi West 12.7 mph - N/A   Clear
5:54 PM 71.1 °F 21.9 °F 16% 29.86 in 10.0 mi WSW 11.5 mph - N/A   Clear
6:54 PM 64.9 °F 23.0 °F 20% 29.89 in 10.0 mi WSW 6.9 mph - N/A   Clear
7:54 PM 61.0 °F 23.0 °F 23% 29.90 in 10.0 mi South 4.6 mph - N/A   Clear
8:54 PM 60.1 °F 25.0 °F 26% 29.88 in 10.0 mi South 4.6 mph - N/A   Clear
9:54 PM 53.1 °F 27.0 °F 37% 29.89 in 10.0 mi SE 3.5 mph - N/A   Clear
10:54 PM 54.0 °F 24.1 °F 31% 29.88 in 10.0 mi Calm Calm - N/A   Clear
11:54 PM 50.0 °F 23.0 °F 35% 29.88 in 10.0 mi NNW 4.6 mph - N/A   Clear